Flag Weather past 2 weeks in Ostrava, Czech Republic

Now
31 °F

Fog.


Feels Like: 27 °F
Forecast: 27 / 35 °F
Wind: 5 mph from Northeast

Location: Ostrava / Mosnov

Current Time: Nov 29, 2014 at 12:32:06 AM

Latest Report: Nov 28, 2014 at 11:00 PM


Visibility: 2 mi

Pressure: 30.22 "Hg

Humidity: 90%

Dew point: 29 °F

Location of OstravaLocation

Historic Weather in Ostrava — Graph

°F

Ostrava temperature yesterday

Maximum temperature yesterday: 35 °F (at 1:00 PM)
Minimum temperature yesterday: 31 °F (at 12:00 AM)
Average temperature yesterday: 33 °F

Past Weeks' High & Low Weather Summary

 TemperatureHumidityPressure
High57 °F (Nov 15, 1:00 PM)100% (Nov 14, 7:00 AM)30.44 "Hg (Nov 14, 7:00 AM)
Low28 °F (Nov 27, 9:00 PM)60% (Nov 23, 1:00 PM)29.71 "Hg (Nov 16, 9:00 AM)
Average40 °F91%30.14 "Hg
* Reported Nov 13 11:00 PM — Nov 28 11:00 PM, Ostrava, Weather by CustomWeather, © 2014

Note: Actual official high and low records may vary slightly from our data, if they occured in-between our weather recording intervals... More about our weather records

Advertising

Ostrava weather history for previous 24 hours

 ConditionsComfort  
Time TempWeatherWind HumidityBarometerVisibility
11:00 PM
Nov 28
31 °FFog.5 mph90%30.22 "Hg2 mi
10:00 PM32 °FFog.3 mph88%30.22 "Hg2 mi
9:00 PM32 °FFog.5 mph88%30.21 "Hg2 mi
8:00 PM32 °FFog.2 mph88%30.21 "Hg2 mi
7:00 PM32 °FFog.3 mph87%30.20 "Hg2 mi
6:00 PM32 °FFog.3 mph85%30.19 "Hg3 mi
5:00 PM33 °FFog.5 mph87%30.18 "Hg3 mi
4:00 PM33 °FFog.3 mph84%30.16 "Hg2 mi
3:00 PM34 °FFog.5 mph85%30.15 "Hg3 mi
2:00 PM35 °FFog.5 mph83%30.15 "Hg3 mi
1:00 PM35 °FFog.3 mph82%30.15 "Hg2 mi
12:00 PM34 °FFog.3 mph84%30.15 "Hg2 mi
11:00 AM34 °FFog.3 mph87%30.16 "Hg2 mi
10:00 AM33 °FFog.3 mph88%30.16 "Hg2 mi
9:00 AM32 °FFog.3 mph91%30.15 "Hg2 mi
8:00 AM32 °FFog.3 mph92%30.14 "Hg2 mi
7:00 AM32 °FFog.3 mph92%30.14 "Hg3 mi
6:00 AM32 °FOvercast.3 mph93%30.12 "Hg3 mi
5:00 AM32 °FFog.2 mph93%30.12 "Hg2 mi
4:00 AM32 °FFog.1 mph95%30.12 "Hg2 mi
3:00 AM32 °FFog.2 mph96%30.12 "Hg2 mi
2:00 AM31 °FFog.1 mph95%30.12 "Hg3 mi
1:00 AM31 °FFog.2 mph96%30.12 "Hg2 mi
12:00 AM31 °FFog.1 mph95%30.12 "Hg3 mi
Weather by CustomWeather, © 2014

See weather overviewHow to use our weather pages